User: anonymous   Login
Location: Handeloh
(53.2500°N, 9.8330°E)
Time: 12:14:28
(UTC+01:00)
Language:

Vanguard 3 - Orbit

View from above orbital plane
View from above orbital plane
View from above satellite
View from above satellite

Ground track
Ground track

The orbit data is extracted from the following two-line orbital elements,

1    20U 59007A   19324.11448363  .00000025  00000-0 -50114-5 0  9996
2    20  33.3509 211.3677 1667340 231.0033 113.0056 11.55691462206298
Epoch (UTC): 20 November 2019 02:44:51
Eccentricity: 0.1667340
inclination: 33.3509°
perigee height: 508 km
apogee height: 3263 km
right ascension of ascending node: 211.3677°
argument of perigee: 231.0033°
revolutions per day: 11.55691462
mean anomaly at epoch: 113.0056°
orbit number at epoch: 20629

The dashed part of the orbit path shows where the satellite is in the earth's shadow,  

DLR